Regional Weather Roundup
Issued by NWS Newport/Morehead, NC

Current Version | Previous Version | Graphics & Text | Print | Product List | Glossary Off
Versions: 1 2 3 4 5 6 7 8 9 10 11 12 13 14 15 16 17 18 19 20 21 22 23 24 25 26 27 28 29 30 31 32 33 34 35 36 37 38 39 40 41 42 43 44 45 46 47 48 49 50

000
ASUS42 KMHX 172125
RWRMHX
WEATHER ROUNDUP FOR EASTERN NORTH CAROLINA
NATIONAL WEATHER SERVICE NEWPORT/MOREHEAD CITY NC
400 PM EST SUN DEC 17 2017

NOTE: "FAIR" INDICATES FEW OR NO CLOUDS BELOW 12,000 FEET
WITH NO SIGNIFICANT WEATHER AND/OR OBSTRUCTIONS TO VISIBILITY

NCZ015>017-031-032-045>047-102-103-172200-
NORTH COAST

CITY           SKY/WX    TMP DP  RH WIND       PRES   REMARKS
EDENTON        CLOUDY    50  37  62 CALM      30.24R
ELIZABETH CITY MOCLDY    49  37  63 CALM      30.23R
KITTY HAWK     CLOUDY    47  32  56 CALM      30.22R
MANTEO         CLOUDY    47  37  69 SW7       30.24R

$$

NCZ045>047-081-094-103-104-172200-
CENTRAL COAST

CITY           SKY/WX    TMP DP  RH WIND       PRES   REMARKS
FRISCO         CLOUDY    49  37  63 CALM      30.24R

$$

NCZ095-097-098-100-101-172200-
SOUTHERN COAST

CITY           SKY/WX    TMP DP  RH WIND       PRES   REMARKS
BEAUFORT       CLOUDY    52  41  66 CALM      30.23S
CEDAR ISLAND   NOT AVBL
JACKSONVILLE   CLOUDY    54  40  59 S7        30.21R
PINEY ISLAND     N/A    N/A N/A N/A S5        30.23R
WILMINGTON     MOSUNNY   59  43  55 SE7       30.22R


$$

NCZ011>013-027>030-043-044-078>080-089-090>093-098-172200-
COASTAL PLAIN

CITY           SKY/WX    TMP DP  RH WIND       PRES   REMARKS
AHOSKIE        LGT RAIN  46  33  61 CALM      30.22F
CLINTON        MOSUNNY   55  37  51 CALM      30.21F
ELIZABETHTOWN  NOT AVBL
GOLDSBORO      CLOUDY    55  32  42 CALM      30.19F
GREENVILLE     CLOUDY    52  32  46 CALM      30.23F
HAVELOCK       CLOUDY    53  40  61 S5        30.24R
KENANSVILLE    CLOUDY    55  34  44 CALM      30.22S
KINSTON        CLOUDY    54  32  43 SW5       30.23R
NEW BERN       CLOUDY    54  36  50 CALM      30.23R
RICHLANDS      CLOUDY    56  41  57 CALM      30.22R
ROCKY MOUNT    CLOUDY    49  38  65 CALM      30.21F
WASHINGTON     CLOUDY    52  33  47 CALM      30.24R
WHITEVILLE     PTSUNNY   60  37  42 CALM      30.21S

$$

AMZ130-135-150-152-154-156-158-170-250-252-270-ANZ085-086-088-633-658-670-172200-
MARINE OBSERVATIONS

STATION/POSITION TIME  TEMP    WIND        PRES    WAVE   SWELL
                       AIR SEA DIR/SP/G            HT/PER HT/PER
                 (UTC) (F)     (DEG/KT/KT) (MB)    (FT/S) (FT/S)
CHESAPEAKE LIGHT NOT AVBL
64 E VA BEACH    2050   53 60  230/ 12/ 14 1024.0    1/10   2/10
DUCK             2100   46 52  290/  3/  4 1023.4
2 E DUCK         2100      54                N/A     1/10
OREGON INLET     2100          190/  7/  7 1023.9
13E OREGON INLT  2048      60                N/A     2/10   2/10
HATTERAS CG      2100   48 53  350/  2/  2 1023.7
DIAMOND BUOY     2110   58 72  290/  8/ 10 1024.1
CAPE LOOKOUT     2100          200/  1/  1 1023.8
BEAUFORT LAB     2100   52 49  220/  2/  3 1023.7
30 SE NEW RVR IN 2108   58 64  250/  2/  4 1023.6
30 SE NEW RVR IN 2100      64                N/A     2/10
27 SE WRIGHTSVLE 2108   57 61  260/  2/  4 1023.5
5 SE WRIGHTSVLE  2108   55 56  190/  6/  6 1023.2
225 S CAPE HAT   2050   66 74  200/  8/ 12 1024.5    3/ 9   3/ 9
41 SE CHARLESTON 2110   62 72  360/  4/  6 1023.1

$$




USA.gov is the U.S. government's official web portal to all federal, state and local government web resources and services.